Retour au catalogue

INSAT 2A

ActifCommunicationsGEO
NORAD 22027·PAYLOAD·🇮🇳 India

Lancé Jul 9, 1992 depuis Guiana Space Centre

Loading…

TLE

FraisSource: Space-Track

Époque: Sep 14, 2026, 15:01 UTC

1 22027U 92041A   26257.62636647 -.00000212  00000-0  00000-0 0  9997
2 22027  14.4720 351.1304 0010672 275.1362 105.5267  1.00232105124953

Suivez INSAT 2A en temps réel avec AllMySat

Download on the App Store